Location: Palomar Mountain Lodge
(33.3110°N, 116.8495°W)
Time: 13:40:32
(UTC-07:00)

Cosmos 2184 Rocket - Pass Details

Date: 12 July 2018
Orbit: 959 x 1002 km, 82.9° (Epoch: 21 July)

Event Time Altitude Azimuth Distance (km) Brightness Sun altitude
Rises 21:44:28 0° 352° (N) 3,666 7.9 -18.8°
Reaches altitude 10° 21:46:59 10° 351° (N) 2,710 7.1 -19.2°
Maximum altitude 21:53:10 78° 267° (W) 984 4.0 -20.1°
Enters shadow 21:57:04 24° 183° (S) 1,873 5.1 -20.7°
